Flag for U.S.A. Weather past 2 weeks in Baker Island, U.S.A.

Now
84 °F

Scattered showers. Partly cloudy.


Feels Like: 96 °F
Forecast: 82 / 87 °F
Wind: 3 mph from North

Location: Funafuti

Current Time: Apr 26, 2015 at 11:22:34 PM

Latest Report: Apr 26, 2015 at 11:00 PM


Visibility: N/A

Pressure: 29.86 "Hg

Humidity: 84%

Dew point: 79 °F

Location of Baker IslandLocation

Historic Weather in Baker Island — Graph

°F

Baker Island temperature yesterday

Maximum temperature yesterday: 88 °F (at 11:00 AM)
Minimum temperature yesterday: 77 °F (at 1:00 PM)
Average temperature yesterday: 81 °F

Past Weeks' High & Low Weather Summary

 TemperatureHumidityPressure
High91 °F (Apr 17, 2:00 PM)100% (Apr 12, 12:00 AM)29.95 "Hg (Apr 12, 12:00 AM)
Low77 °F (Apr 12, 7:00 PM)66% (Apr 16, 9:00 AM)29.71 "Hg (Apr 19, 4:00 PM)
Average84 °F80%29.81 "Hg
* Reported Apr 11 10:00 PM — Apr 26 10:00 PM, Baker Island, Weather by CustomWeather, © 2015

Note: Actual official high and low records may vary slightly from our data, if they occured in-between our weather recording intervals... More about our weather records

Advertising

Baker Island weather history for previous 24 hours

 ConditionsComfort  
Time TempWeatherWind HumidityBarometerVisibility
10:00 PM
Sun, Apr 26
82 °FPartly cloudy.2 mph89%29.86 "HgN/A
9:00 PM82 °FScattered showers. Partly cloudy.1 mph89%29.86 "HgN/A
8:00 PM82 °FPassing clouds.2 mph84%29.83 "HgN/A
7:00 PM84 °FPassing clouds.3 mph79%29.80 "HgN/A
6:00 PM84 °FPassing clouds.8 mph79%29.80 "HgN/A
5:00 PM86 °FScattered clouds.3 mph75%29.77 "HgN/A
4:00 PM86 °FScattered clouds.3 mph70%29.77 "HgN/A
3:00 PM91 °FPassing clouds.6 mph67%29.77 "HgN/A
2:00 PM90 °FPassing clouds.6 mph71%29.77 "HgN/A
1:00 PM90 °FScattered clouds.3 mph71%29.80 "HgN/A
12:00 PM90 °FPassing clouds.3 mph71%29.83 "HgN/A
11:00 AM88 °FScattered clouds.3 mph70%29.86 "HgN/A
10:00 AM84 °FScattered showers. Scattered clouds.2 mph84%29.86 "HgN/A
9:00 AM88 °FScattered clouds.7 mph75%29.86 "HgN/A
8:00 AM86 °FScattered clouds.3 mph75%29.86 "HgN/A
7:00 AM84 °FScattered clouds.3 mph79%29.83 "HgN/A
6:00 AM82 °FPassing clouds.3 mph84%29.83 "HgN/A
5:00 AM82 °FPartly cloudy.1 mph79%29.80 "HgN/A
4:00 AM82 °FScattered showers. Mostly cloudy.2 mph79%29.80 "HgN/A
3:00 AM81 °FScattered showers. Mostly cloudy.1 mph84%29.80 "HgN/A
2:00 AM81 °FScattered showers. Mostly cloudy.2 mph84%29.80 "HgN/A
1:00 AM81 °FPassing clouds.2 mph84%29.83 "HgN/A
12:00 AM81 °FPassing clouds.3 mph84%29.83 "HgN/A
11:00 PM
Sat, Apr 25
82 °FPassing clouds.1 mph84%29.86 "HgN/A
Weather by CustomWeather, © 2015

See weather overviewHow to use our weather pages